Location: Shepherdstown, WV
(39.4326°N, 77.8042°W)
Time: 13:00:05
(UTC-04:00)

Tiros 1 despin weight - Pass Details

Date: 25 July 2021
Orbit: 593 x 641 km, 48.2° (Epoch: 22 September)

Event Time Altitude Azimuth Distance (km) Brightness Sun altitude
Rises 21:38:36 0° 301° (WNW) 2,931 ? -12.1°
Reaches altitude 10° 21:41:01 10° 308° (NW) 2,016 ? -12.4°
Maximum altitude 21:45:30 47° 22° (NNE) 829 ? -13.1°
Enters shadow 21:49:03 15° 93° (E) 1,670 ? -13.6°
